Stevensville, MD

6:23 PM EDT on October 18, 2017 (GMT -0400)
Stevensville

Weather History for KW29 - September, 2012

Change the Weather History Date:

Wednesday, September 12, 2012

  Actual Average (KESN) Record (KESN)
Temperature  
Mean Temperature 68 °F -  
Max Temperature 77 °F 81 °F 92 °F (1961)
Min Temperature 59 °F 56 °F 44 °F (1967)
Cooling Degree Days 3    
Growing Degree Days 18 (Base 50)    
Moisture  
Dew Point 54 °F    
Average Humidity 64    
Maximum Humidity 94    
Minimum Humidity 34    
Precipitation  
Precipitation 0.00 in - - ()
Sea Level Pressure  
Sea Level Pressure 30.34 in    
Wind  
Wind Speed 3 mph (SSW)    
Max Wind Speed 7 mph    
Max Gust Speed -    
Visibility 10 miles    
Events      
Averages and records for this station are not official NWS values.
T = Trace of Precipitation, MM = Missing Value Source: NWS Daily Summary

Daily Weather History Graph

Daily Weather History Graph

Search for Another Location

Airport or City:

Trip Planner

Search our weather history database for the weather conditions in past years. The results will help you decide how hot, cold, wet, or windy it might be!

Date:

Astronomy

Sep. 12, 2012 Rise Set
Actual Time 6:44 AM EDT 7:17 PM EDT
Civil Twilight 6:17 AM EDT 7:44 PM EDT
Nautical Twilight 5:45 AM EDT 8:16 PM EDT
Astronomical Twilight 5:13 AM EDT 8:48 PM EDT
Moon 3:00 AM EDT (9/12) 5:02 PM EDT (9/12)
Length of Visible Light 13h 26m
Length of Day
12h 33m
Waning Crescent, 14% of the Moon is Illuminated
Sep 12
Waning Crescent
Sep 15
New
Sep 22
First Quarter
Sep 29
Full
Oct 8
Last Quarter

Hourly Weather History & Observations

Time (EDT) Temp. Dew Point Humidity Pressure Visibility Wind Dir Wind Speed Gust Speed Precip Events Conditions
12:22 AM 60.8 °F 57.2 °F 88% 30.31 in 10.0 mi Calm Calm - N/A   Clear
1:05 AM 59.0 °F 57.2 °F 94% 30.30 in 10.0 mi Calm Calm - N/A   Clear
1:26 AM 59.0 °F 57.2 °F 94% 30.30 in 10.0 mi Calm Calm - N/A   Clear
1:47 AM 60.8 °F 53.6 °F 77% 30.30 in 10.0 mi SSE 3.5 mph - N/A   Clear
2:09 AM 60.8 °F 57.2 °F 88% 30.31 in 10.0 mi Calm Calm - N/A   Clear
2:30 AM 60.8 °F 55.4 °F 82% 30.31 in 10.0 mi Calm Calm - N/A   Clear
2:51 AM 59.0 °F 55.4 °F 88% 30.31 in 10.0 mi Calm Calm - N/A   Clear
3:13 AM 59.0 °F 55.4 °F 88% 30.31 in 10.0 mi SW 4.6 mph - N/A   Clear
3:34 AM 64.4 °F 55.4 °F 73% 30.31 in 10.0 mi SW 3.5 mph - N/A   Clear
3:55 AM 60.8 °F 55.4 °F 82% 30.31 in 10.0 mi Calm Calm - N/A   Clear
4:17 AM 62.6 °F 55.4 °F 77% 30.31 in 10.0 mi WSW 3.5 mph - N/A   Clear
4:38 AM 64.4 °F 55.4 °F 73% 30.31 in 10.0 mi WSW 3.5 mph - N/A   Clear
4:59 AM 62.6 °F 55.4 °F 77% 30.32 in 10.0 mi WSW 3.5 mph - N/A   Clear
5:21 AM 62.6 °F 53.6 °F 72% 30.32 in 10.0 mi SW 3.5 mph - N/A   Clear
5:42 AM 62.6 °F 53.6 °F 72% 30.33 in 10.0 mi SW 3.5 mph - N/A   Clear
6:03 AM 62.6 °F 53.6 °F 72% 30.33 in 10.0 mi Calm Calm - N/A   Clear
6:24 AM 60.8 °F 53.6 °F 77% 30.33 in 10.0 mi Calm Calm - N/A   Clear
7:07 AM 62.6 °F 53.6 °F 72% 30.35 in 10.0 mi West 4.6 mph - N/A   Clear
7:28 AM 64.4 °F 55.4 °F 73% 30.35 in 10.0 mi West 4.6 mph - N/A   Clear
7:50 AM 64.4 °F 53.6 °F 68% 30.35 in 10.0 mi WSW 4.6 mph - N/A   Clear
8:32 AM 68.0 °F 53.6 °F 60% 30.36 in 10.0 mi Calm Calm - N/A   Clear
8:53 AM 68.0 °F 53.6 °F 60% 30.37 in 10.0 mi WSW 4.6 mph - N/A   Clear
9:15 AM 68.0 °F 53.6 °F 60% 30.37 in 10.0 mi West 3.5 mph - N/A   Clear
9:36 AM 69.8 °F 53.6 °F 56% 30.38 in 10.0 mi West 4.6 mph - N/A   Clear
9:57 AM 69.8 °F 53.6 °F 56% 30.38 in 10.0 mi WSW 4.6 mph - N/A   Clear
10:18 AM 69.8 °F 53.6 °F 56% 30.38 in 10.0 mi West 4.6 mph - N/A   Clear
10:40 AM 71.6 °F 53.6 °F 53% 30.38 in 10.0 mi West 4.6 mph - N/A   Clear
11:01 AM 71.6 °F 53.6 °F 53% 30.38 in 10.0 mi WNW 3.5 mph - N/A   Clear
11:22 AM 73.4 °F 55.4 °F 53% 30.38 in 10.0 mi West 4.6 mph - N/A   Clear
11:43 AM 73.4 °F 53.6 °F 50% 30.37 in 10.0 mi West 4.6 mph - N/A   Clear
12:05 PM 73.4 °F 53.6 °F 50% 30.37 in 10.0 mi WSW 6.9 mph - N/A   Clear
12:26 PM 73.4 °F 51.8 °F 47% 30.37 in 10.0 mi South 3.5 mph - N/A   Clear
12:47 PM 73.4 °F 50.0 °F 44% 30.37 in 10.0 mi ESE 4.6 mph - N/A   Clear
1:08 PM 75.2 °F 50.0 °F 41% 30.36 in 7.0 mi SE 6.9 mph - N/A   Clear
1:30 PM 75.2 °F 50.0 °F 41% 30.36 in 10.0 mi SE 6.9 mph - N/A   Clear
1:51 PM 75.2 °F 48.2 °F 38% 30.36 in 10.0 mi SSE 5.8 mph - N/A   Clear
2:12 PM 77.0 °F 50.0 °F 39% 30.36 in 10.0 mi South 4.6 mph - N/A   Clear
2:33 PM 77.0 °F 48.2 °F 36% 30.35 in 10.0 mi SSW 5.8 mph - N/A   Clear
2:55 PM 77.0 °F 48.2 °F 36% 30.34 in 10.0 mi SSE 5.8 mph - N/A   Clear
3:16 PM 77.0 °F 46.4 °F 34% 30.34 in 10.0 mi Calm Calm - N/A   Clear
3:37 PM 77.0 °F 50.0 °F 39% 30.33 in 10.0 mi Calm Calm - N/A   Clear
3:58 PM 77.0 °F 50.0 °F 39% 30.33 in 10.0 mi SW 5.8 mph - N/A   Clear
4:19 PM 77.0 °F 50.0 °F 39% 30.32 in 10.0 mi SSE 3.5 mph - N/A   Clear
5:02 PM 77.0 °F 50.0 °F 39% 30.32 in 10.0 mi SSW 4.6 mph - N/A   Clear
5:23 PM 77.0 °F 50.0 °F 39% 30.32 in 10.0 mi South 4.6 mph - N/A   Clear
6:06 PM 75.2 °F 51.8 °F 44% 30.32 in 10.0 mi SW 5.8 mph - N/A   Clear
6:48 PM 73.4 °F 53.6 °F 50% 30.32 in 10.0 mi Calm Calm - N/A   Clear
7:09 PM 71.6 °F 53.6 °F 53% 30.32 in 10.0 mi SSW 3.5 mph - N/A   Clear
7:31 PM 71.6 °F 53.6 °F 53% 30.32 in 10.0 mi Calm Calm - N/A   Clear
8:34 PM 68.0 °F 55.4 °F 64% 30.34 in 10.0 mi Calm Calm - N/A   Clear
8:56 PM 66.2 °F 59.0 °F 78% 30.34 in 10.0 mi Calm Calm - N/A   Clear
9:17 PM 64.4 °F 59.0 °F 83% 30.34 in 10.0 mi SE 3.5 mph - N/A   Clear
9:38 PM 64.4 °F 60.8 °F 88% 30.34 in 10.0 mi East 5.8 mph - N/A   Clear
10:00 PM 64.4 °F 59.0 °F 83% 30.35 in 10.0 mi ESE 3.5 mph - N/A   Clear
10:21 PM 64.4 °F 59.0 °F 83% 30.35 in 10.0 mi ESE 4.6 mph - N/A   Clear
10:42 PM 64.4 °F 60.8 °F 88% 30.35 in 10.0 mi ESE 4.6 mph - N/A   Clear
11:03 PM 64.4 °F 60.8 °F 88% 30.35 in 10.0 mi SE 4.6 mph - N/A   Clear
11:25 PM 64.4 °F 60.8 °F 88% 30.36 in 10.0 mi SE 4.6 mph - N/A   Clear
11:46 PM 64.4 °F 60.8 °F 88% 30.35 in 10.0 mi SE 5.8 mph - N/A   Clear